This is the latest recevied weather packets stored in our database for station/object WK1F-2. If no packets are shown the sender has not sent any weather packets the latest 1 day(s).
| Time | Temp. | Humidity | Pressure | Rain* | Wind** | Luminosity | Snow |
|---|---|---|---|---|---|---|---|
| 1778109001 | 25.56° C | 67% | 1013.6 hPa | 0 mm | - | - | - |
| 1778108701 | 25.56° C | 66% | 1013.6 hPa | 0 mm | - | - | - |
| 1778108401 | 25.56° C | 65% | 1013.6 hPa | 0 mm | - | - | - |
| 1778108101 | 26.11° C | 63% | 1013.6 hPa | 0 mm | - | - | - |
| 1778107801 | 26.11° C | 62% | 1013.7 hPa | 0 mm | - | - | - |
| 1778107501 | 26.11° C | 61% | 1013.7 hPa | 0 mm | - | - | - |
| 1778107201 | 26.11° C | 61% | 1013.8 hPa | 0 mm | - | - | - |
| 1778101352 | 27.22° C | 64% | 1013.9 hPa | 0 mm | - | - | - |
| 1778101052 | 27.22° C | 62% | 1013.8 hPa | 0 mm | - | - | - |
| 1778100752 | 27.22° C | 64% | 1013.8 hPa | 0 mm | - | - | - |
| 1778100452 | 27.22° C | 64% | 1013.8 hPa | 0 mm | - | - | - |
| 1778100152 | 27.22° C | 64% | 1013.9 hPa | 0 mm | - | - | - |
| 1778091751 | 28.89° C | 56% | 1015.4 hPa | 0 mm | - | - | - |
| 1778090251 | 30° C | 46% | 1015.6 hPa | 0 mm | - | - | - |
| 1778089951 | 30° C | 46% | 1015.7 hPa | 0 mm | - | - | - |
| 1778089651 | 29.44° C | 47% | 1015.8 hPa | 0 mm | - | - | - |
| 1778089351 | 30° C | 46% | 1015.9 hPa | 0 mm | - | - | - |
| 1778088751 | 30° C | 47% | 1016 hPa | 0 mm | - | - | - |
| 1778088451 | 29.44° C | 47% | 1016.1 hPa | 0 mm | - | - | - |
| 1778088151 | 29.44° C | 47% | 1016.1 hPa | 0 mm | - | - | - |
| 1778087851 | 29.44° C | 47% | 1016.1 hPa | 0 mm | - | - | - |
| 1778087551 | 29.44° C | 47% | 1016.3 hPa | 0 mm | - | - | - |
| 1778087251 | 29.44° C | 47% | 1016.3 hPa | 0 mm | - | - | - |
| 1778086951 | 29.44° C | 49% | 1016.3 hPa | 0 mm | - | - | - |
| 1778086651 | 29.44° C | 48% | 1016.4 hPa | 0 mm | - | - | - |
* Rain latest hour (hover to see other rain measurements)
** Current wind speed in m/s (hover to see current wind gust speed)